Tracking 30160 objects as of 14-Feb-2025
HD Live streaming from Space Station
objects crossing your sky now

ONEWEB-0288

Track ONEWEB-0288 now!
10-day predictions
ONEWEB-0288 is classified as:


NORAD ID: 49078
Int'l Code: 2021-075D
Perigee: 1,219.4 km
Apogee: 1,222.4 km
Inclination: 87.9 °
Period: 109.7 minutes
Semi major axis: 7591 km
RCS: Unknown
Launch date: August 21, 2021
Source: United Kingdom (UK)
Launch site: TYURATAM MISSILE AND SPACE COMPLEX (TTMTR)
Your satellite tracking list
Your tracking list is empty




NASA's NSSDC Master Catalog

Two Line Element Set (TLE):
1 49078U 21075D   25044.49022595  .00000167  00000-0  43003-3 0  9991
2 49078  87.8819  87.9536 0001956  91.5552 268.5800 13.12442024171086
Source of the keplerian elements: AFSPC